Home   Weather   Vienna   Past weeks

Flag for Austria Past Weather in Vienna, Vienna, Austria — Yesterday and Last 2 Weeks

Now
56 °F

Cool.


Feels Like: 56 °F
Forecast: 59 / 79 °F
Wind: 1 mph from North

Location: Wien / Hohe Warte

Current Time: Sep 1, 2016 at 5:51:07 AM

Latest Report: Sep 1, 2016 at 5:00 AM


Visibility: N/A

Pressure: 30.16 "Hg

Humidity: 87%

Dew Point: 52 °F

Location of ViennaLocation

Past Weather in Vienna — Graph

°F

Vienna Temperature Yesterday

Maximum temperature yesterday: 77 °F (at 5:00 PM)
Minimum temperature yesterday: 56 °F (at 6:00 AM)
Average temperature yesterday: 66 °F

High & Low Weather Summary for the Past Weeks

 TemperatureHumidityPressure
High88 °F (Aug 28, 4:00 PM)95% (Aug 20, 7:00 AM)30.35 "Hg (Aug 20, 7:00 AM)
Low54 °F (Aug 18, 6:00 AM)35% (Aug 31, 2:00 PM)29.78 "Hg (Aug 18, 5:00 PM)
Average70 °F65%30.09 "Hg
* Reported Aug 17 4:00 AM — Sep 1 4:00 AM, Vienna, Weather by CustomWeather, © 2016

Note: Actual official high and low records may vary slightly from our data, if they occured in-between our weather recording intervals... More about our weather records

Advertising

Vienna Weather History for the Previous 24 Hours

Scroll right to see more
 ConditionsComfort  
Time TempWeatherWind HumidityBarometerVisibility
4:00 AM
Thu, Sep 1
56 °FCool.2 mph85%30.15 "HgN/A
3:00 AM57 °FCool.2 mph84%30.16 "HgN/A
2:00 AM58 °FClear.2 mph80%30.16 "Hg19 mi
1:00 AM60 °FCool.1 mph75%30.16 "HgN/A
12:00 AM62 °FCool.2 mph69%30.17 "HgN/A
11:00 PM
Wed, Aug 31
63 °FMild.1 mph66%30.16 "HgN/A
10:00 PM65 °FClear.1 mph62%30.16 "Hg19 mi
9:00 PM67 °FClear.2 mph56%30.15 "Hg19 mi
8:00 PM70 °FClear.3 mph48%30.14 "Hg31 mi
7:00 PM73 °FSunny.5 mph43%30.13 "Hg37 mi
6:00 PM75 °FSunny.5 mph40%30.14 "Hg31 mi
5:00 PM77 °FSunny.3 mph36%30.15 "Hg31 mi
4:00 PM77 °FSunny.3 mph39%30.16 "Hg31 mi
3:00 PM76 °FSunny.3 mph40%30.18 "Hg31 mi
2:00 PM74 °FSunny.2 mph35%30.20 "Hg25 mi
1:00 PM72 °FSunny.3 mph44%30.22 "Hg25 mi
12:00 PM71 °FSunny.2 mph48%30.23 "Hg25 mi
11:00 AM67 °FSunny.2 mph54%30.24 "Hg25 mi
10:00 AM63 °FSunny.3 mph59%30.24 "Hg31 mi
9:00 AM61 °FSunny.2 mph58%30.24 "Hg31 mi
8:00 AM60 °FSunny.1 mph61%30.25 "Hg31 mi
7:00 AM56 °FPassing clouds.2 mph71%30.26 "Hg31 mi
6:00 AM56 °FClear.1 mph68%30.25 "Hg31 mi
5:00 AM58 °FCool.No wind64%30.25 "HgN/A
Weather by CustomWeather, © 2016

See weather overviewHow to use our weather pages